Location: Banios
(43.0451°N, 0.2335°E)
Time: 12:14:41
(UTC+00:00)

NOSS 0 Rocket - Pass Details

Date: 25 January 2021
Orbit: 938 x 952 km, 70.0° (Epoch: 25 February)

Event Time Altitude Azimuth Distance (km) Brightness Sun altitude
Exits shadow 04:12:13 54° 97° (E) 1,131 4.5 -34.4°
Drops below altitude 10° 04:17:52 10° 34° (NE) 2,662 6.7 -33.4°
Sets 04:20:26 0° 31° (NNE) 3,609 7.4 -32.9°
